Tracking 29892 objects as of 21-Nov-2024
HD Live streaming from Space Station
objects crossing your sky now

HEAD-3A

Track HEAD-3A now!
10-day predictions


NORAD ID: 57626
Int'l Code: 2023-121A
Perigee: 699.8 km
Apogee: 708.6 km
Inclination: 45.0 °
Period: 98.7 minutes
Semi major axis: 7075 km
RCS: Unknown
Launch date: August 14, 2023
Source: People's Republic of China (PRC)
Launch site: Xichang Space Center, China (XSC)
Your satellite tracking list
Your tracking list is empty




NASA's NSSDC Master Catalog

Two Line Element Set (TLE):
1 57626U 23121A   24326.11839391  .00002801  00000-0  62590-3 0  9993
2 57626  45.0020 246.2899 0006159 183.0188 177.0632 14.58798868 67833
Source of the keplerian elements: AFSPC